Regional Weather Roundup
Issued by NWS

Home | Current Version | Previous Version | Text Only | Print | Product List | Glossary On
Versions: 1 2 3 4 5 6 7 8 9 10 11 12 13 14 15 16 17 18 19 20 21 22 23 24 25 26 27 28 29 30 31 32 33 34 35 36 37 38 39 40 41 42 43 44 45 46 47 48 49 50
000
ASUS43 KOAX 010710
RWRNE

WEATHER ROUNDUP FOR NEBRASKA
NATIONAL WEATHER SERVICE OMAHA NE
200 AM CDT WED JUN 01 2016

NOTES: SATELLITE DATA IS BEING USED TO AUGMENT CLOUD COVER ABOVE
       12000 FEET.
       "FAIR" INDICATES FEW OR NO CLOUDS BELOW 12,000 FEET WITH NO
       SIGNIFICANT WEATHER AND/OR OBSTRUCTIONS TO VISIBILITY.

  * THESE STATIONS DO NOT REPORT WEATHER SUCH AS RAIN...SNOW OR FOG.

NEZ001>004-019>022-054>056-010800-
NEBRASKA PANHANDLE

CITY           SKY/WX    TMP DP  RH WIND       PRES   REMARKS
SCOTTSBLUFF    MOCLDY    46  38  73 N8        30.16F
ALLIANCE       CLEAR     36  35  96 SW5       30.14R WCI  32
CHADRON        CLEAR     45  39  79 W9        30.14R
KIMBALL        PTCLDY    42  40  91 CALM      30.20R
SIDNEY         PTCLDY    45  40  82 N7        30.18R
$$

NEZ057>060-069>072-079>082-010800-
SOUTHWEST NEBRASKA

CITY           SKY/WX    TMP DP  RH WIND       PRES   REMARKS
NORTH PLATTE   CLEAR     52  45  77 VRB3      30.12R
IMPERIAL       CLOUDY    55  48  77 N6        30.13R
LEXINGTON      CLEAR     54  48  80 N3        30.10R
MCCOOK         CLEAR     54  50  86 W5        30.09R
OGALLALA       CLEAR     46  42  85 N3        30.15R
$$

NEZ005>010-023>029-035>040-094-010800-
NORTH CENTRAL NEBRASKA

CITY           SKY/WX    TMP DP  RH WIND       PRES   REMARKS
VALENTINE      CLEAR     50  43  77 W8        30.07F
AINSWORTH      CLEAR     51  45  81 W7        30.07S
BROKEN BOW     CLEAR     51  46  83 CALM      30.08S
O`NEILL        CLEAR     52  48  88 SW8       30.05R
THEDFORD       CLEAR     49  44  83 W8        30.10S
$$

NEZ041-046>049-061>064-073>077-083>087-010800-
SOUTH CENTRAL NEBRASKA

CITY           SKY/WX    TMP DP  RH WIND       PRES   REMARKS
GRAND ISLAND   CLEAR     57  50  77 N8        30.05S
AURORA         CLEAR     60  52  74 N12       30.04R
HASTINGS       CLEAR     59  50  72 SW3       30.03F
HEBRON         CLEAR     59  56  91 NW3       30.00F
HOLDREGE       CLEAR     57  48  70 W3        30.06R
KEARNEY *      CLEAR     57  46  67 N13       30.07S
YORK           CLEAR     57  52  82 NW13      30.03S
$$

NEZ011>018-030>034-042>045-010800-
NORTHEAST NEBRASKA

CITY           SKY/WX    TMP DP  RH WIND       PRES   REMARKS
NORFOLK        CLEAR     55  48  77 NW7       30.01F
ALBION         CLEAR     52  47  82 NW6       30.04F
BLAIR          CLEAR     63  48  58 W8        29.98R
FREMONT        CLEAR     60  49  66 NW7       30.00R
TEKAMAH        CLEAR     62  48  60 NW10      29.97R
WAYNE          CLEAR     55  49  81 W7        30.01S
$$

NEZ050>053-065>068-078-088>093-010800-
SOUTHEAST NEBRASKA

CITY           SKY/WX    TMP DP  RH WIND       PRES   REMARKS
LINCOLN        CLEAR     63  52  67 W3        29.98F
OMAHA EPPLEY   PTCLDY    63  55  75 SE3       29.96F
BEATRICE       CLEAR     59  56  88 CALM      29.98F
FALLS CITY     CLOUDY    62  57  83 W5        29.95F
NEBRASKA CITY  CLEAR     61  57  88 W7        29.97F
PLATTSMOUTH    CLEAR     65  52  62 W6        29.96F
$$

NEZ044-045-051>053-067-010800-
OMAHA AREA

CITY           SKY/WX    TMP DP  RH WIND       PRES   REMARKS
OMAHA EPPLEY   PTCLDY    63  55  75 SE3       29.96F
BLAIR          CLEAR     63  48  58 W8        29.98R
FREMONT        CLEAR     60  49  66 NW7       30.00R
MILLARD        PTCLDY    58  54  86 CALM      29.96F
OFFUTT AFB     CLEAR     56  56  98 W3        29.95F
PLATTSMOUTH    CLEAR     65  52  62 W6        29.96F
WAHOO          FAIR      64  49  57 NW9       29.99R
$$




USA.gov is the U.S. government's official web portal to all federal, state and local government web resources and services.